Location: Albany
(35.0170°S, 117.8920°E)
Time: 16:14:51
(UTC+08:00)

Explorer 11/Cluster Stage 4 - Pass Details

Date: 28 January 2021
Orbit: 467 x 1257 km, 28.8° (Epoch: 02 March)

Event Time Altitude Azimuth Distance (km) Brightness Sun altitude
Rises 06:10:06 0° 312° (NW) 4,086 9.7 8.1°
Reaches altitude 10° 06:13:32 10° 322° (NW) 3,037 9.1 8.8°
Maximum altitude 06:19:46 29° 18° (NNE) 1,803 8.6 10.0°
Drops below altitude 10° 06:25:08 10° 75° (ENE) 2,593 10.5 11.1°
Sets 06:27:49 0° 86° (E) 3,400 11.4 11.6°
